Weather History for PAPH - October, 2011

Change the Weather History Date:

Friday, October 14, 2011

  Actual Average Record
Temperature  
Mean Temperature 46 °F -  
Max Temperature 51 °F 42 °F 55 °F (2002)
Min Temperature 42 °F 32 °F 24 °F (1997)
Degree Days  
Heating Degree Days 18    
Moisture  
Dew Point 41 °F    
Average Humidity 84    
Maximum Humidity 93    
Minimum Humidity 71    
Precipitation  
Precipitation 0.00 in - - ()
Sea Level Pressure  
Sea Level Pressure 29.14 in    
Wind  
Wind Speed 30 mph (SW)    
Max Wind Speed 44 mph    
Max Gust Speed 58 mph    
Visibility 6 miles    
Events      
Averages and records for this station are not official NWS values.
T = Trace of Precipitation, MM = Missing Value Source: NWS Daily Summary

Daily Weather History Graph

Daily Weather History Graph

Search for Another Location

Airport or City:

Trip Planner

Search our weather history database for the weather conditions in past years. The results will help you decide how hot, cold, wet, or windy it might be!

Date:

Astronomy

Oct. 14, 2011 Rise Set
Actual Time 9:05 AM AKDT 7:34 PM AKDT
Civil Twilight 8:26 AM AKDT 8:13 PM AKDT
Nautical Twilight 7:42 AM AKDT 8:57 PM AKDT
Astronomical Twilight 6:58 AM AKDT 9:41 PM AKDT
Moon 8:08 PM AKDT (10/14) 12:30 PM AKDT (10/14)
Length of Visible Light 11h 46m
Length of Day
10h 29m
Waning Gibbous, 93% of the Moon is Illuminated
Oct 14
Waning Gibbous
Oct 19
Last Quarter
Oct 26
New
Nov 2
First Quarter
Nov 10
Full

Hourly Weather History & Observations

Time (AKDT) Temp. Windchill Dew Point Humidity Pressure Visibility Wind Dir Wind Speed Gust Speed Precip Events Conditions
12:16 AM 51.8 °F - 42.8 °F 71% 29.09 in 10.0 mi SE 32.2 mph 42.6 mph N/A   Clear
12:36 AM 51.8 °F - 42.8 °F 71% 29.08 in 10.0 mi SE 26.5 mph 40.3 mph N/A   Clear
12:56 AM 51.8 °F - 42.8 °F 71% 29.07 in 10.0 mi SE 28.8 mph 38.0 mph N/A   Clear
1:16 AM 51.8 °F - 44.6 °F 76% 29.06 in 10.0 mi SE 27.6 mph 35.7 mph N/A   Clear
1:36 AM 51.8 °F - 44.6 °F 76% 29.03 in 10.0 mi SSE 28.8 mph 38.0 mph N/A   Clear
1:56 AM 51.8 °F - 44.6 °F 76% 29.02 in 10.0 mi SSE 28.8 mph 35.7 mph N/A   Clear
2:16 AM 51.8 °F - 44.6 °F 76% 29.01 in 10.0 mi SSE 28.8 mph 35.7 mph N/A   Clear
2:36 AM 51.8 °F - 42.8 °F 71% 29.01 in 10.0 mi SSE 25.3 mph 33.4 mph N/A   Clear
2:56 AM 50.0 °F - 44.6 °F 82% 29.01 in 10.0 mi SSE 21.9 mph 31.1 mph N/A   Clear
3:16 AM 50.0 °F - 44.6 °F 82% 29.01 in 10.0 mi SSE 21.9 mph - N/A   Clear
3:36 AM 50.0 °F - 42.8 °F 76% 29.01 in 10.0 mi SSE 20.7 mph 27.6 mph N/A   Clear
3:56 AM 51.8 °F - 42.8 °F 71% 29.00 in 10.0 mi South 23.0 mph 31.1 mph N/A   Clear
4:16 AM 51.8 °F - 42.8 °F 71% 29.00 in 10.0 mi SSE 21.9 mph - N/A   Scattered Clouds
4:36 AM 51.8 °F - 42.8 °F 71% 29.00 in 10.0 mi SSE 18.4 mph 26.5 mph N/A   Mostly Cloudy
4:56 AM 51.8 °F - 42.8 °F 71% 29.00 in 10.0 mi SSE 19.6 mph 24.2 mph N/A   Overcast
5:16 AM 50.0 °F - 42.8 °F 76% 29.00 in 10.0 mi South 19.6 mph 25.3 mph N/A   Overcast
5:36 AM 48.2 °F - 41.0 °F 76% 29.00 in 10.0 mi South 16.1 mph - N/A   Overcast
5:56 AM 46.4 °F 37.7 °F 39.2 °F 76% 29.02 in 8.0 mi SW 26.5 mph 38.0 mph N/A   Overcast
6:16 AM 46.4 °F 37.0 °F 42.8 °F 87% 29.01 in 10.0 mi SSW 31.1 mph 39.1 mph N/A   Overcast
6:36 AM 44.6 °F 34.1 °F 41.0 °F 87% 29.00 in 10.0 mi SSW 34.5 mph 41.4 mph N/A   Overcast
6:56 AM 44.6 °F 33.9 °F 42.8 °F 93% 28.99 in 10.0 mi SSW 35.7 mph 43.7 mph N/A   Overcast
7:16 AM 44.6 °F 34.4 °F 41.0 °F 87% 28.99 in 4.0 mi SSW 32.2 mph 43.7 mph N/A   Overcast
7:36 AM 44.6 °F 33.9 °F 42.8 °F 93% 28.99 in 3.0 mi SW 35.7 mph 47.2 mph N/A   Overcast
7:56 AM 44.6 °F 34.1 °F 42.8 °F 93% 29.00 in 3.0 mi SW 34.5 mph 47.2 mph N/A   Overcast
8:16 AM 44.6 °F 33.2 °F 42.8 °F 93% 29.01 in 4.0 mi SW 41.4 mph 52.9 mph N/A   Overcast
8:36 AM 44.6 °F 33.9 °F 41.0 °F 87% 29.03 in 3.0 mi SW 35.7 mph 47.2 mph N/A   Overcast
8:56 AM 44.6 °F 33.9 °F 39.2 °F 81% 29.04 in 4.0 mi WSW 35.7 mph 49.5 mph N/A   Overcast
9:16 AM 44.6 °F 33.3 °F 41.0 °F 87% 29.05 in 3.0 mi WSW 40.3 mph 52.9 mph N/A   Overcast
9:36 AM 44.6 °F 33.5 °F 41.0 °F 87% 29.07 in 3.0 mi WSW 39.1 mph 49.5 mph N/A   Overcast
9:56 AM 44.6 °F 33.8 °F 41.0 °F 87% 29.09 in 2.5 mi WSW 36.8 mph 48.3 mph N/A   Overcast
10:16 AM 44.6 °F 33.9 °F 41.0 °F 87% 29.10 in 2.5 mi WSW 35.7 mph 51.8 mph N/A   Overcast
10:36 AM 44.6 °F 33.5 °F 41.0 °F 87% 29.11 in 3.0 mi WSW 39.1 mph 47.2 mph N/A   Overcast
10:56 AM 42.8 °F 31.4 °F 41.0 °F 93% 29.12 in 2.5 mi WSW 35.7 mph 52.9 mph N/A   Overcast
11:16 AM 42.8 °F 31.8 °F 39.2 °F 87% 29.14 in 3.0 mi WSW 33.4 mph 49.5 mph N/A   Overcast
11:36 AM 42.8 °F 31.4 °F 39.2 °F 87% 29.15 in 3.0 mi WSW 35.7 mph 50.6 mph N/A   Overcast
11:56 AM 42.8 °F 31.6 °F 39.2 °F 87% 29.16 in 3.0 mi WSW 34.5 mph 49.5 mph N/A   Overcast
12:16 PM 42.8 °F 30.8 °F 39.2 °F 87% 29.16 in 3.0 mi WSW 40.3 mph 50.6 mph N/A   Overcast
12:36 PM 42.8 °F 31.0 °F 41.0 °F 93% 29.17 in 3.0 mi WSW 39.1 mph 57.5 mph N/A   Overcast
12:56 PM 42.8 °F 30.4 °F 41.0 °F 93% 29.18 in 2.0 mi WSW 43.7 mph 52.9 mph N/A   Overcast
1:16 PM 42.8 °F 31.0 °F 41.0 °F 93% 29.19 in 1.8 mi West 39.1 mph 51.8 mph N/A   Overcast
1:36 PM 42.8 °F 31.0 °F 39.2 °F 87% 29.21 in 1.5 mi West 39.1 mph 57.5 mph N/A   Overcast
1:56 PM 42.8 °F 31.1 °F 39.2 °F 87% 29.23 in 1.5 mi West 38.0 mph 50.6 mph N/A   Overcast
2:16 PM 42.8 °F 30.8 °F 41.0 °F 93% 29.24 in 2.0 mi West 40.3 mph 48.3 mph N/A   Overcast
2:36 PM 42.8 °F 32.1 °F 41.0 °F 93% 29.27 in 1.5 mi West 31.1 mph 48.3 mph N/A   Overcast
2:56 PM 42.8 °F 31.1 °F 41.0 °F 93% 29.28 in 1.5 mi West 38.0 mph 46.0 mph N/A   Overcast
3:16 PM 42.8 °F 31.1 °F 41.0 °F 93% 29.30 in 2.5 mi West 38.0 mph 47.2 mph N/A   Overcast
3:36 PM 42.8 °F 32.3 °F 41.0 °F 93% 29.32 in 5.0 mi West 29.9 mph 41.4 mph N/A   Overcast
3:56 PM 42.8 °F 32.3 °F 41.0 °F 93% 29.33 in 8.0 mi West 29.9 mph 46.0 mph N/A   Overcast
4:16 PM 42.8 °F 32.1 °F 41.0 °F 93% 29.34 in 5.0 mi West 31.1 mph 43.7 mph N/A   Overcast
4:36 PM 42.8 °F 32.3 °F 39.2 °F 87% 29.36 in 9.0 mi West 29.9 mph 40.3 mph N/A   Overcast
5:16 PM 44.6 °F 34.7 °F 37.4 °F 76% 29.39 in 8.0 mi West 29.9 mph 40.3 mph N/A   Overcast
5:36 PM 42.8 °F 32.9 °F 39.2 °F 87% 29.40 in 5.0 mi West 26.5 mph 39.1 mph N/A   Mostly Cloudy
5:56 PM 44.6 °F 35.5 °F 39.2 °F 81% 29.41 in 8.0 mi West 25.3 mph 38.0 mph N/A   Overcast
6:16 PM 44.6 °F 34.4 °F 37.4 °F 76% 29.42 in 10.0 mi West 32.2 mph 41.4 mph N/A   Overcast
6:36 PM 42.8 °F 32.5 °F 39.2 °F 87% 29.43 in 8.0 mi West 28.8 mph 34.5 mph N/A   Overcast
6:56 PM 42.8 °F 32.9 °F 37.4 °F 81% 29.44 in 10.0 mi West 26.5 mph 38.0 mph N/A   Overcast
7:16 PM 42.8 °F 32.5 °F 37.4 °F 81% 29.45 in 10.0 mi West 28.8 mph 35.7 mph N/A   Overcast
7:36 PM 42.8 °F 33.1 °F 37.4 °F 81% 29.46 in 10.0 mi West 25.3 mph 34.5 mph N/A   Overcast
7:56 PM 42.8 °F 33.1 °F 37.4 °F 81% 29.47 in 10.0 mi West 25.3 mph 33.4 mph N/A   Overcast
8:16 PM 42.8 °F 33.5 °F 37.4 °F 81% 29.48 in 10.0 mi West 23.0 mph 33.4 mph N/A   Overcast
8:36 PM 42.8 °F 33.1 °F 37.4 °F 81% 29.49 in 7.0 mi West 25.3 mph 34.5 mph N/A   Overcast
8:56 PM 42.8 °F 33.3 °F 39.2 °F 87% 29.50 in 9.0 mi West 24.2 mph 31.1 mph N/A   Overcast
9:16 PM 42.8 °F 33.5 °F 39.2 °F 87% 29.51 in 7.0 mi West 23.0 mph 33.4 mph N/A   Overcast
9:36 PM 42.8 °F 32.9 °F 37.4 °F 81% 29.52 in 9.0 mi West 26.5 mph 32.2 mph N/A   Overcast
9:56 PM 42.8 °F 33.1 °F 37.4 °F 81% 29.52 in 9.0 mi West 25.3 mph 31.1 mph N/A   Overcast
10:16 PM 42.8 °F 32.9 °F 37.4 °F 81% 29.53 in 10.0 mi West 26.5 mph 32.2 mph N/A   Mostly Cloudy
10:36 PM 42.8 °F 33.1 °F 37.4 °F 81% 29.54 in 10.0 mi West 25.3 mph 33.4 mph N/A   Overcast
10:56 PM 42.8 °F 33.5 °F 37.4 °F 81% 29.54 in 10.0 mi West 23.0 mph 31.1 mph N/A   Mostly Cloudy
11:16 PM 42.8 °F 33.5 °F 37.4 °F 81% 29.55 in 10.0 mi West 23.0 mph 31.1 mph N/A   Overcast
11:36 PM 42.8 °F 33.3 °F 37.4 °F 81% 29.56 in 10.0 mi West 24.2 mph 29.9 mph N/A   Mostly Cloudy
11:56 PM 42.8 °F 33.8 °F 37.4 °F 81% 29.56 in 10.0 mi West 21.9 mph 29.9 mph N/A   Overcast